Regional Weather Roundup
Issued by NWS Newport/Morehead, NC

Current Version | Previous Version | Graphics & Text | Print | Product List | Glossary Off
Versions: 1 2 3 4 5 6 7 8 9 10 11 12 13 14 15 16 17 18 19 20 21 22 23 24 25 26 27 28 29 30 31 32 33 34 35 36 37 38 39 40 41 42 43 44 45 46 47 48 49 50

000
ASUS42 KMHX 160710
RWRMHX
WEATHER ROUNDUP FOR EASTERN NORTH CAROLINA
NATIONAL WEATHER SERVICE NEWPORT/MOREHEAD CITY NC
300 AM EDT WED APR 16 2014

NOTE: "FAIR" INDICATES FEW OR NO CLOUDS BELOW 12,000 FEET
WITH NO SIGNIFICANT WEATHER AND/OR OBSTRUCTIONS TO VISIBILITY

NCZ015>017-031-032-045>047-102-103-160800-
NORTH COAST

CITY           SKY/WX    TMP DP  RH WIND       PRES   REMARKS
EDENTON        PTCLDY    39  35  85 N15G21    30.05R
ELIZABETH CITY CLOUDY    40  35  83 N22G28    30.03R
KITTY HAWK     DRIZZLE   40  39  93 N14G35    29.99R
MANTEO         CLOUDY    42  39  89 NE29G40   30.00R

$$

NCZ045>047-081-094-103-104-160800-
CENTRAL COAST

CITY           SKY/WX    TMP DP  RH WIND       PRES   REMARKS
FRISCO         CLOUDY    46  43  89 N20G37    29.96R
SWANQUARTER      N/A     41 N/A N/A NW13G22   29.97R

$$

NCZ095-097-098-100-101-160800-
SOUTHERN COAST

CITY           SKY/WX    TMP DP  RH WIND       PRES   REMARKS
BEAUFORT       CLOUDY    44  40  85 N18G25    30.01R
CEDAR ISLAND     N/A     46 N/A N/A N36       30.03R
JACKSONVILLE   CLOUDY    45  41  86 N13G23    30.04R
NEWPORT          N/A     43  36  75 N15G24      N/A
PINEY ISLAND   CLOUDY    47  32  56 N29G39    30.01R
WILMINGTON     LGT RAIN  47  42  83 N10       30.03R


$$

NCZ011>013-027>030-043-044-078>080-089-090>093-098-160800-
COASTAL PLAIN

CITY           SKY/WX    TMP DP  RH WIND       PRES   REMARKS
AHOSKIE        CLEAR     37  33  85 N8        30.11R
CLINTON        CLOUDY    43  34  69 N9G17     30.08R
ELIZABETHTOWN  CLOUDY    42  32  68 N7        30.07R
GOLDSBORO      CLOUDY    43  39  87 NE15      30.07R
GREENVILLE     CLEAR     37  34  87 N15       30.10R
HAVELOCK       MOCLDY    43  35  73 N21G32    30.03R
KENANSVILLE    CLOUDY    44  38  79 N16G25    30.07R
KINSTON        MOCLDY    42  37  82 N20G25    30.08R
NEW BERN       PTCLDY    43  35  73 N21G26    30.05R
RICHLANDS      PTCLDY    43  36  75 N12G20    30.05R
ROANOKE RAPIDS NOT AVBL
ROCKY MOUNT      N/A    N/A N/A N/A MISG      30.10R
WASHINGTON     CLEAR     40  35  82 N18       30.06R
WHITEVILLE     CLEAR     42  32  67 N7        30.06R

$$

AMZ130-135-150-152-154-156-158-170-250-252-270-ANZ085-086-088-633-658-670-160800-
MARINE OBSERVATIONS

STATION/POSITION TIME  TEMP    WIND        PRES    WAVE   SWELL
                       AIR SEA DIR/SP/G            HT/PER HT/PER
                 (UTC) (F)     (DEG/KT/KT) (MB)    (FT/S) (FT/S)
CHESAPEAKE LIGHT 0600   39      10/ 29/ 31 1016.1
BUOY 44014       0700   44 52  350/ 29/ 37 1014.1   12/ 8
DUCK             0700      48   10/ 33/ 41 1013.9
2E DUCK          0700      47                N/A     9/ 8
OREGON INLET     0700      66  340/ 26/ 35 1014.5
BUOY 44095       0700      62                N/A    13/ 8   2/11
HATTERAS CG      0700   49 64  360/ 32/ 41 1014.1
DIAMOND BUOY     NOT AVBL
CAPE LOOKOUT     0600   47     360/ 29/ 36 1013.5
BEAUFORT LAB     0700   45 64  350/ 17/ 27 1015.5
30 SE NEW RIVER  0700   50 63  360/ 29/ 37 1015.3    8/ 7
5 SE WRIGHTSVILL 0600   49 61  350/ 21/ 27 1014.6
FRYING PAN BUOY  0700   51 66   10/ 27/ 35 1014.3    9/ 6
BUOY 41001       NOT AVBL
BUOY 41002       NOT AVBL
BUOY 41004       NOT AVBL

$$



USA.gov is the U.S. government's official web portal to all federal, state and local government web resources and services.